DELTA 1 DEB *, 6213

Orbit data source: Space-Track

DELTA 1 DEB *, 6213 is space debris in SSO originally from a launch on Sun, 02 Oct 1966 UTC launched from the Air Force Western Test Range (AFWTR). Debris objects in space refer to the collection of defunct objects orbiting the Earth. Examples of debris include non-operational satellites, rocket bodies, and fragments generated from explosions, collisions, or faulty payload assembly.

Loading next visibility...
Identifier
6213, 1966-087E
Orbit
SSO
Country
Flag of USUS
Related business
Manufacturer
Unknown
Mission
Spacecraft
Bus & Motor
Unknown
Mass
Unknown
Launch date (UTC)
1966-10-02 (60 years ago)
Launch vehicle
Unknown
Launch site
Air Force Western Test Range (AFWTR)
Object type
Payload
Rocket body
Debris
Shape & HBR
Unknown shape, 0.1 m
Radar Cross Section
Medium (>0.1 m² and <1 m²)

Expand to show TLE details & history
Last TLE update: 1 day ago

TLE from 1 day ago
0 DELTA 1 DEB *
1  6213U 66087E   26262.91607933  .00001727  00000-0  40271-2 0  9998
2  6213 101.7716 296.9687 0042491  29.0819  93.8737 13.26045361808906
Epoch: 2026-09-19T21:59Z
TLE epoch observation values (Epoch: 2026-09-19T21:59:09.254Z)
Latitude
54.8742°
Longitude
165.5035°
Altitude
1,172.912 km
Speed
7.271 km/s
True Right ascension
08h 56m 26s
True Declination
54° 43' 16"
Sunlit
Object was in daylight at epoch
Visualization orbit readout
Latitude
Unknown
Longitude
Unknown
Altitude
Unknown
Speed
Unknown
Apparent Right ascension
Unknown
Apparent Declination
Unknown
Sunlit
N/A
Visualization observer readout
Local Sidereal Time
01:04:30
Azimuth
Unknown
Elevation
Unknown
Doppler factor
Unknown
Orbital elements
Apogee altitude
1,191.193 km
Perigee altitude
1,127.139 km
Semi-major axis
7,537.303 km
Eccentricity
0.00425
Inclination
101.7716°
RAAN
296.9687°
Arg. of periapsis
29.0819°
True anomaly
94.35932°
Mean anomaly
93.8737°
Eccentric anomaly
94.11653°
Mean motion
3.3168 °/min
Orbital period
108.54 mins
BSTAR
0.0040271
Loading maneuver chart data...
Computing Atmospheric mass density...
Loading historical data...
Loading historical data...
Loading historical data...
Loading historical data...
Loading historical data...
Loading historical data...
Loading historical data...
Other satellites on launch #87 in the year 1966 (1966-10-02 UTC)

Documentation

Showing up to 5 results
|